Current weather by "City, St" or "zip code"  
 
Advertise Here

Current Conditions: San Jose, San Jose International Airport, CA

Mostly Cloudy


52.0 F

Last Updated on Jan 27 2021, 10:53 am PST
Humidity: 75%
Wind Speed: SE 15.0 mph
Barometer 29.83 in
Dewpoint: 44.1 F
Visibility: 10.00 mi
Precip: Trace
Heat Index: NA
Wind Chill: 47 F
Current conditions at:

San Jose, San Jose International Airport, CA (KSJC)

Lat: 37.35917 Lon: 121.92417

Local Radar Image active severe weather and emergency alerts image image weather storm and storm spotter reports image weather observation monitoring service image
Local
Radar
Active
Alerts
Storm Reports Obs
Monitoring

Sign-up For Email & Text Message Weather Alert Notification Services


Advertise Here

Observation History for San Jose, San Jose International Airport, CA


Time Wind
(mph)
Vis
(mi)
Weather Precip (in) Temperature (F) Relative
Humidity
Wind
Chill
(F)
Heat
Index
(F)
Pressure
Air Dwpt altimeter
(in)
sea level
(mb)
Rmks
10:53 am PST SE 15.0 10.00 Mostly Cloudy Trace 52.0 44.1 75% 47 NA 29.83 1010.0
9:53 am PST SE 15.0 10.00 Mostly Cloudy Trace 51.0 46.0 83% 46 NA 29.82 1009.7
8:53 am PST SE 12.7 10.00 Mostly Cloudy Trace 50.0 45.0 83% 45 NA 29.82 1009.8
7:53 am PST SE 12.7 10.00 Mostly Cloudy -- 48.0 44.1 86% 43 NA 29.81 1009.5
6:53 am PST SE 10.4 10.00 Partly Cloudy -- 47.0 44.1 90% 42 NA 29.81 1009.3
5:53 am PST S 9.2 10.00 Partly Cloudy -- 49.0 44.1 83% 45 NA 29.78 1008.5
4:53 am PST SE 12.7 10.00 Mostly Cloudy -- 48.0 44.1 86% 43 NA 29.76 1007.6
3:53 am PST SE 16.1 10.00 Mostly Cloudy Trace 49.0 43.0 80% 43 NA 29.74 1007.1
2:53 am PST SE 20.7 8.00 Light Rain and Breezy 00.17 47.0 43.0 86% 40 NA 29.71 1006.2
1:53 am PST S 24.2 G 38.0 3.00 Rain Fog/Mist and Breezy 00.14 46.0 43.0 89% 38 NA 29.72 1006.4
12:53 am PST SE 29.9 G 41.4 3.00 Heavy Rain Fog/Mist and Windy 00.12 46.0 42.1 86% 37 NA 29.70 1005.5
11:53 pm PST SE 32.2 G 40.3 4.00 Rain and Windy 00.08 46.0 41.0 83% 36 NA 29.70 1005.8
10:53 pm PST SE 33.4 G 47.2 5.00 Light Rain and Windy 00.01 44.0 39.0 83% 33 NA 29.72 1006.2
9:53 pm PST SE 28.8 G 42.6 10.00 Light Rain and Windy 00.01 44.0 37.9 79% 34 NA 29.74 1006.9
8:53 pm PST SE 28.8 G 38.0 10.00 Light Rain and Windy 00.01 44.0 37.9 79% 34 NA 29.76 1007.8
7:53 pm PST SE 24.2 G 35.7 10.00 Light Rain and Breezy Trace 45.0 37.0 74% 36 NA 29.79 1008.8
6:53 pm PST SE 20.7 G 31.1 10.00 Light Rain and Breezy Trace 47.0 37.0 69% 40 NA 29.84 1010.4
5:53 pm PST S 21.9 G 29.9 10.00 Overcast and Breezy -- 48.0 34.0 58% 41 NA 29.86 1011.0
4:53 pm PST SE 17.3 G 29.9 10.00 Overcast Trace 48.0 35.1 61% 42 NA 29.88 1011.6
3:53 pm PST SE 15.0 10.00 Light Rain Trace 48.0 36.0 63% 42 NA 29.90 1012.4
2:53 pm PST S 13.8 G 21.9 10.00 Overcast -- 50.0 30.0 46% 45 NA 29.94 1013.6
1:53 pm PST S 12.7 10.00 Overcast -- 51.0 34.0 52% 46 NA 29.95 1014.1
12:53 pm PST SE 10.4 10.00 Overcast -- 51.0 32.0 48% 47 NA 29.97 1014.7
11:53 am PST SE 11.5 10.00 Mostly Cloudy -- 50.0 32.0 50% 46 NA 29.99 1015.6

Regional Weather Observation


Palo Alto Airport, CA (KPAO)

Partly Cloudy
52.0 F

Mountain View, Moffett Field, CA (KNUQ)

Partly Cloudy
52.0 F

Oakland, Metro Oakland International Airport, CA (KOAK)

Mostly Cloudy
55.0 F

San Carlos Airport, CA (KSQL)

Mostly Cloudy
50.0 F

San Francisco, San Francisco International Airport, CA (KSFO)

Overcast
53.0 F

Half Moon Bay Airport, CA (KHAF)

Fog/Mist
54.0 F